Location: Artiguedieu
(43.5000°N, 0.5454°E)
Time: 01:38:54
(UTC+00:00)

Transit 2A - Pass Details

Date: 25 July 2021
Orbit: 595 x 963 km, 66.7° (Epoch: 16 September)

Event Time Altitude Azimuth Distance (km) Brightness Sun altitude
Rises 09:11:10 0° 251° (WSW) 2,841 8.6 46.7°
Reaches altitude 10° 09:13:51 10° 268° (W) 1,966 7.9 47.2°
Maximum altitude 09:17:10 20° 317° (NW) 1,447 7.3 47.7°
Drops below altitude 10° 09:20:39 10° 6° (N) 2,080 8.3 48.3°
Sets 09:23:36 0° 23° (NNE) 3,061 9.1 48.8°
